Time,TemperatureF,DewpointF,PressureIn,WindDirection,WindDirectionDegrees,WindSpeedMPH,WindSpeedGustMPH,Humidity,HourlyPrecipIn,Conditions,Clouds,dailyrainin,SoftwareType,DateUTC
2013-02-12 00:00:00,45.7,34.6,30.31,NE,42,0.0,1.0,65,0.00,,---,0.00,VWS V14.00,2013-02-12 08:00:00,
2013-02-12 00:01:00,46.5,37.3,30.30,NE,42,0.0,1.0,70,0.00,,---,0.00,VWS V14.00,2013-02-12 08:01:00,
2013-02-12 00:30:00,45.7,36.1,30.31,NE,42,0.0,1.0,69,0.00,,---,0.00,VWS V14.00,2013-02-12 08:30:00,
2013-02-12 01:00:00,45.7,34.6,30.31,NE,42,0.0,1.0,65,0.00,,---,0.00,VWS V14.00,2013-02-12 09:00:00,
2013-02-12 01:30:00,45.1,31.6,30.30,NE,42,0.0,1.0,59,0.00,,---,0.00,VWS V14.00,2013-02-12 09:30:00,
2013-02-12 01:31:00,45.2,34.2,30.31,NE,42,0.0,1.0,65,0.00,,---,0.00,VWS V14.00,2013-02-12 09:31:00,
2013-02-12 02:00:00,44.6,30.8,30.30,NE,42,0.0,1.0,58,0.00,,---,0.00,VWS V14.00,2013-02-12 10:00:00,
2013-02-12 02:01:00,45.1,33.7,30.30,NE,42,0.0,1.0,64,0.00,,---,0.00,VWS V14.00,2013-02-12 10:01:00,
2013-02-12 02:30:00,45.1,31.6,30.30,NE,42,0.0,1.0,59,0.00,,---,0.00,VWS V14.00,2013-02-12 10:30:00,
2013-02-12 03:00:00,44.6,30.8,30.30,NE,42,0.0,1.0,58,0.00,,---,0.00,VWS V14.00,2013-02-12 11:00:00,
2013-02-12 03:30:00,43.7,29.5,30.32,NE,47,0.0,1.0,57,0.00,,---,0.00,VWS V14.00,2013-02-12 11:30:00,
2013-02-12 03:31:00,44.2,30.4,30.31,NE,42,0.0,1.0,58,0.00,,---,0.00,VWS V14.00,2013-02-12 11:31:00,
2013-02-12 04:00:00,44.0,30.2,30.31,NE,46,0.0,1.0,58,0.00,,---,0.00,VWS V14.00,2013-02-12 12:00:00,
2013-02-12 04:30:00,43.7,29.5,30.32,NE,47,0.0,1.0,57,0.00,,---,0.00,VWS V14.00,2013-02-12 12:30:00,
2013-02-12 05:00:00,43.6,29.4,30.33,NE,47,0.0,1.0,57,0.00,,---,0.00,VWS V14.00,2013-02-12 13:00:00,
2013-02-12 05:30:00,43.1,28.9,30.33,NE,47,0.0,1.0,57,0.00,,---,0.00,VWS V14.00,2013-02-12 13:30:00,
2013-02-12 06:00:00,43.8,29.6,30.36,NE,47,1.0,1.0,57,0.00,,---,0.00,VWS V14.00,2013-02-12 14:00:00,
2013-02-12 06:01:00,43.4,28.8,30.34,NE,47,0.0,1.0,56,0.00,,---,0.00,VWS V14.00,2013-02-12 14:01:00,
2013-02-12 06:30:00,44.7,30.9,30.38,NE,47,0.0,1.0,58,0.00,,---,0.00,VWS V14.00,2013-02-12 14:30:00,
2013-02-12 06:31:00,43.6,29.0,30.35,NE,47,0.0,1.0,56,0.00,,---,0.00,VWS V14.00,2013-02-12 14:31:00,
2013-02-12 07:00:00,43.8,29.6,30.36,NE,47,1.0,1.0,57,0.00,,---,0.00,VWS V14.00,2013-02-12 15:00:00,
2013-02-12 07:30:00,52.3,36.2,30.39,NE,47,0.0,1.0,54,0.00,,---,0.00,VWS V14.00,2013-02-12 15:30:00,
2013-02-12 07:31:00,44.7,30.9,30.38,NE,47,0.0,1.0,58,0.00,,---,0.00,VWS V14.00,2013-02-12 15:31:00,
2013-02-12 08:00:00,48.3,32.9,30.39,NE,47,0.0,1.0,55,0.00,,---,0.00,VWS V14.00,2013-02-12 16:00:00,
2013-02-12 08:30:00,52.3,36.2,30.39,NE,47,0.0,1.0,54,0.00,,---,0.00,VWS V14.00,2013-02-12 16:30:00,
2013-02-12 09:00:00,56.3,40.8,30.39,NE,47,0.0,1.0,56,0.00,,---,0.00,VWS V14.00,2013-02-12 17:00:00,
2013-02-12 09:30:00,57.7,38.7,30.40,ESE,118,1.0,3.0,49,0.00,,---,0.00,VWS V14.00,2013-02-12 17:30:00,
2013-02-12 10:00:00,58.8,45.0,30.38,SSE,148,0.0,2.0,60,0.00,,---,0.00,VWS V14.00,2013-02-12 18:00:00,
2013-02-12 10:01:00,56.2,41.6,30.40,SE,140,1.0,3.0,58,0.00,,---,0.00,VWS V14.00,2013-02-12 18:01:00,
2013-02-12 10:30:00,56.3,41.7,30.39,SSE,148,0.0,3.0,58,0.00,,---,0.00,VWS V14.00,2013-02-12 18:30:00,
2013-02-12 11:00:00,58.8,45.0,30.38,SSE,148,0.0,2.0,60,0.00,,---,0.00,VWS V14.00,2013-02-12 19:00:00,
2013-02-12 11:30:00,60.9,46.5,30.37,SSE,148,0.0,1.0,59,0.00,,---,0.00,VWS V14.00,2013-02-12 19:30:00,
2013-02-12 12:00:00,62.6,48.1,30.32,West,269,0.0,3.0,59,0.00,,---,0.00,VWS V14.00,2013-02-12 20:00:00,
2013-02-12 12:01:00,61.7,47.2,30.35,SSE,148,0.0,1.0,59,0.00,,---,0.00,VWS V14.00,2013-02-12 20:01:00,
2013-02-12 12:30:00,60.9,48.7,30.31,NW,306,0.0,5.0,64,0.00,,---,0.00,VWS V14.00,2013-02-12 20:30:00,
2013-02-12 12:31:00,62.2,48.6,30.34,South,178,0.0,4.0,61,0.00,,---,0.00,VWS V14.00,2013-02-12 20:31:00,
2013-02-12 13:00:00,61.8,49.5,30.31,East,96,2.0,4.0,64,0.00,,---,0.00,VWS V14.00,2013-02-12 21:00:00,
2013-02-12 13:01:00,62.6,48.1,30.32,West,269,0.0,3.0,59,0.00,,---,0.00,VWS V14.00,2013-02-12 21:01:00,
2013-02-12 13:30:00,59.3,49.1,30.30,WNW,297,1.0,7.0,69,0.00,,---,0.00,VWS V14.00,2013-02-12 21:30:00,
2013-02-12 13:31:00,60.9,48.7,30.31,NW,306,0.0,5.0,64,0.00,,---,0.00,VWS V14.00,2013-02-12 21:31:00,
2013-02-12 14:00:00,59.1,50.5,30.30,WNW,288,0.0,7.0,73,0.00,,---,0.00,VWS V14.00,2013-02-12 22:00:00,
2013-02-12 14:01:00,61.8,49.5,30.31,East,96,2.0,4.0,64,0.00,,---,0.00,VWS V14.00,2013-02-12 22:01:00,
2013-02-12 14:30:00,59.3,49.1,30.30,WNW,297,1.0,7.0,69,0.00,,---,0.00,VWS V14.00,2013-02-12 22:30:00,
2013-02-12 15:00:00,59.1,50.5,30.30,WNW,288,0.0,7.0,73,0.00,,---,0.00,VWS V14.00,2013-02-12 23:00:00,
2013-02-12 15:30:00,58.2,50.0,30.29,West,275,1.0,6.0,74,0.00,,---,0.00,VWS V14.00,2013-02-12 23:30:00,
2013-02-12 16:00:00,55.9,48.1,30.29,West,273,4.0,8.0,75,0.00,,---,0.00,VWS V14.00,2013-02-13 00:00:00,
2013-02-12 16:01:00,57.2,49.7,30.29,WNW,290,3.0,7.0,76,0.00,,---,0.00,VWS V14.00,2013-02-13 00:01:00,
2013-02-12 16:30:00,56.4,48.9,30.29,West,275,4.0,8.0,76,0.00,,---,0.00,VWS V14.00,2013-02-13 00:30:00,
2013-02-12 17:00:00,55.9,48.1,30.29,West,273,4.0,8.0,75,0.00,,---,0.00,VWS V14.00,2013-02-13 01:00:00,
2013-02-12 17:30:00,55.3,48.9,30.29,WNW,284,2.0,5.0,79,0.00,,---,0.00,VWS V14.00,2013-02-13 01:30:00,
2013-02-12 18:00:00,53.4,43.1,30.29,WNW,296,1.0,4.0,68,0.00,,---,0.00,VWS V14.00,2013-02-13 02:00:00,
2013-02-12 18:30:00,52.1,39.9,30.31,WNW,291,0.0,1.0,63,0.00,,---,0.00,VWS V14.00,2013-02-13 02:30:00,
2013-02-12 18:31:00,52.6,39.1,30.30,WNW,296,0.0,1.0,60,0.00,,---,0.00,VWS V14.00,2013-02-13 02:31:00,
2013-02-12 19:00:00,52.2,42.3,30.32,NNW,328,0.0,1.0,69,0.00,,---,0.00,VWS V14.00,2013-02-13 03:00:00,
2013-02-12 19:01:00,52.4,41.0,30.30,WNW,290,0.0,3.0,65,0.00,,---,0.00,VWS V14.00,2013-02-13 03:01:00,
2013-02-12 19:30:00,52.1,39.9,30.31,WNW,291,0.0,1.0,63,0.00,,---,0.00,VWS V14.00,2013-02-13 03:30:00,
2013-02-12 20:00:00,52.2,42.3,30.32,NNW,328,0.0,1.0,69,0.00,,---,0.00,VWS V14.00,2013-02-13 04:00:00,
2013-02-12 20:30:00,51.7,41.9,30.32,NNW,329,1.0,2.0,69,0.00,,---,0.00,VWS V14.00,2013-02-13 04:30:00,
2013-02-12 21:00:00,50.1,38.4,30.33,NNW,329,0.0,1.0,64,0.00,,---,0.00,VWS V14.00,2013-02-13 05:00:00,
2013-02-12 21:30:00,47.8,40.6,30.32,NNW,333,0.0,1.0,76,0.00,,---,0.00,VWS V14.00,2013-02-13 05:30:00,
2013-02-12 21:31:00,48.9,39.9,30.33,NNW,329,0.0,2.0,71,0.00,,---,0.00,VWS V14.00,2013-02-13 05:31:00,
2013-02-12 22:00:00,47.4,40.9,30.32,NNW,338,0.0,1.0,78,0.00,,---,0.00,VWS V14.00,2013-02-13 06:00:00,
2013-02-12 22:01:00,48.5,40.2,30.33,NNW,329,0.0,1.0,73,0.00,,---,0.00,VWS V14.00,2013-02-13 06:01:00,
2013-02-12 22:30:00,47.7,40.8,30.32,NNW,338,0.0,1.0,77,0.00,,---,0.00,VWS V14.00,2013-02-13 06:30:00,
2013-02-12 22:31:00,47.8,40.6,30.32,NNW,333,0.0,1.0,76,0.00,,---,0.00,VWS V14.00,2013-02-13 06:31:00,
2013-02-12 23:00:00,47.4,40.9,30.32,NNW,338,0.0,1.0,78,0.00,,---,0.00,VWS V14.00,2013-02-13 07:00:00,
2013-02-12 23:30:00,47.7,40.8,30.32,NNW,338,0.0,1.0,77,0.00,,---,0.00,VWS V14.00,2013-02-13 07:30:00,